Вернуться в каталог

STARLINK-36810

АктивенСвязьSSO
NORAD 67898·PAYLOAD·🇺🇸 United States

Запущен Feb 21, 2026 с Vandenberg Space Force Base

Loading…

Ближайшие Пролёты (ближайшие 24 часа)

TLE

СвежийSource: CelesTrak SupGP

Эпоха: Sep 14, 2026, 22:52 UTC

1 67898C 26035V   26257.95326389 -.00042671  00000+0 -13250-2 0  2572
2 67898  97.2847 189.8794 0001865  93.6853 237.0809 15.33451112    13

Отслеживайте STARLINK-36810 в реальном времени с AllMySat

Download on the App Store